Location: Doschendorf
(50.0069°N, 11.0602°E)
Time: 08:23:19
(UTC+00:00)

Cosmos 1464 Rocket - Pass Details

Date: 17 November 2019
Orbit: 951 x 1002 km, 82.9° (Epoch: 09 December)

Event Time Altitude Azimuth Distance (km) Brightness Sun altitude
Rises 16:45:37 0° 351° (N) 3,662 6.9 -12.1°
Reaches altitude 10° 16:48:10 10° 354° (N) 2,706 6.2 -12.5°
Maximum altitude 16:54:20 69° 78° (ENE) 1,018 3.9 -13.5°
Drops below altitude 10° 17:00:25 10° 162° (SSE) 2,672 6.2 -14.4°
Sets 17:02:54 0° 165° (SSE) 3,613 7.0 -14.8°
